User: anonymous   Login
Location: Unspecified
(0.0000°N, 0.0000°E)
Time: 06:47:49
(UTC+02:00)
Language:

ADEOS II - Orbit

View from above orbital plane
View from above orbital plane
View from above satellite
View from above satellite

Ground track
Ground track

The orbit data is extracted from the following two-line orbital elements,

1 27597U 02056A   17207.02913236 +.00000024 +00000-0 +26637-4 0  9990
2 27597 098.3722 174.9475 0000983 133.5475 226.5788 14.27294888760967
Epoch (UTC): 26 July 2017 00:41:57
Eccentricity: 0.0000983
inclination: 98.3722°
perigee height: 800 km
apogee height: 801 km
right ascension of ascending node: 174.9475°
argument of perigee: 133.5475°
revolutions per day: 14.27294888
mean anomaly at epoch: 226.5788°
orbit number at epoch: 76096

The dashed part of the orbit path shows where the satellite is in the earth's shadow,  

DLR